Location: Unspecified
(0.0000°N, 0.0000°E)
Time: 11:29:16
(UTC+01:00)

GPS 2-12 Rocket1 - Visible Passes

Search period start: 23 January 2017 00:00
Search period end: 02 February 2017 00:00
Orbit: 587 x 654 km, 20.0° (Epoch: 21 January)

Date Brightness Start Highest point End Pass type
(mag) Time Alt. Az. Time Alt. Az. Time Alt. Az.
23 Jan 5.4 05:32:52 12° NNE 05:32:52 12° NNE 05:33:19 10° NNE visible
28 Jan 5.4 20:44:27 10° SSW 20:46:46 13° SSE 20:48:01 12° SSE visible
29 Jan 5.0 20:59:48 10° SSW 21:03:12 20° SSE 21:03:12 20° SSE visible
30 Jan 5.5 19:33:59 10° S 19:35:50 12° SSE 19:37:40 10° SE visible
30 Jan 4.8 21:15:29 10° SW 21:18:25 27° S 21:18:25 27° S visible
31 Jan 5.1 19:49:09 10° SSW 19:52:22 18° SSE 19:55:36 10° ESE visible
31 Jan 5.1 21:31:27 10° SW 21:33:39 26° SW 21:33:39 26° SW visible
01 Feb 4.5 20:04:47 10° SW 20:08:49 28° SSE 20:11:53 15° ESE visible
01 Feb 5.7 21:47:39 10° WSW 21:48:55 18° WSW 21:48:55 18° WSW visible
